Hourly Weather Roundup
Issued by NWS Central Illinois

Home | Current Version | Previous Version | Text Only | Print | Product List | Glossary On
Versions: 1 2 3 4 5 6 7 8 9 10 11 12 13 14 15 16 17 18 19 20 21 22 23 24 25 26 27 28 29 30 31 32 33 34 35 36 37 38 39 40 41 42 43 44 45 46 47 48 49 50
853
NZUS43 KILX 010510
HWRILX

AREA WEATHER ROUNDUP
NATIONAL WEATHER SERVICE, LINCOLN IL
1200 AM CDT SAT OCT 01 2016


CITY           SKY/WX    TMP DP  RH WIND       PRES   REMARKS
BLOOMINGTON    CLOUDY    60  59  96 N9        30.03F
CHAMPAIGN      CLOUDY    61  59  93 E5        30.01S
DANVILLE       MOCLDY    59  58  98 NE3       29.98S
DECATUR        CLOUDY    63  60  90 N12       30.01S
EFFINGHAM      LGT RAIN  61  61 100 W3        30.01S
FLORA          LGT RAIN  62  62  97 CALM      29.99F
GALESBURG      CLOUDY    60  58  94 N8        30.07F
JACKSONVILLE   CLOUDY    61  60  96 NW5       30.05S
LACON          CLOUDY    61  59  94 N3        30.04S
LAWRENCEVILLE  PTCLDY    58  56  93 E3        30.00F
LITCHFIELD     CLOUDY    60  58  92 NW7       30.02F
$$


CITY           SKY/WX    TMP DP  RH WIND       PRES   REMARKS
LINCOLN        CLOUDY    62  62 100 N5        30.02S
MACOMB         CLOUDY    61  59  95 N9        30.09S
MATTOON        LGT RAIN  58  57  97 CALM      29.98F
MT CARMEL AP   CLOUDY    58  57  96 SE3       30.00F
OLNEY-NOBLE AP LGT RAIN  57  57 100 CALM      30.00S VSB 3/4
PARIS          CLOUDY    59  59 100 CALM      30.00S FOG
PEORIA         CLOUDY    62  61  96 N6        30.04F
PONTIAC        DRIZZLE   61  61 100 NE7       30.04S
RANTOUL        CLOUDY    63  61  96 NE7       30.01S
ROBINSON       CLOUDY    56  56 100 S3        30.01F
SPRINGFIELD    LGT RAIN  62  61  96 N9        30.03S FOG
TAYLORVILLE    CLOUDY    61  60  99 N5        30.01F FOG
$$

...REGIONAL REPORTS...


CITY           SKY/WX    TMP DP  RH WIND       PRES   REMARKS
CHICAGO O`HARE CLOUDY    62  58  86 NE10      30.05S
KANKAKEE       LGT RAIN  59  59  98 CALM      30.04S
MOLINE         CLOUDY    62  58  86 N7        30.08F
MOUNT STERLING CLOUDY    60  58  95 NW8       30.06F
MOUNT VERNON   CLOUDY    63  55  77 CALM      30.01S
PITTSFIELD     CLOUDY    61  60  94 NW8       30.07F
QUINCY         CLOUDY    61  58  90 NW8       30.07F
ROCKFORD       LGT RAIN  60  59  96 N8        30.08F FOG
$$


CITY           SKY/WX    TMP DP  RH WIND       PRES   REMARKS
BURLINGTON     CLOUDY    59  59 100 N7        30.08F
CEDAR RAPIDS   CLOUDY    60  59  96 N6        30.11F
DES MOINES     CLOUDY    62  56  80 NE6       30.14F
KIRKSVILLE     CLOUDY    59  55  87 NW6       30.11F
OTTUMWA        CLOUDY    61  56  83 N6        30.12F
ST LOUIS       CLOUDY    63  59  87 NW7       30.05S
$$


CITY           SKY/WX    TMP DP  RH WIND       PRES   REMARKS
TERRE HAUTE    CLOUDY    58  56  93 CALM      30.00S
EVANSVILLE     CLOUDY    57  55  93 CALM      30.01S FOG
INDIANAPOLIS   MOCLDY    56  55  97 S3        30.01R
LAFAYETTE      CLOUDY    60  59  96 NE9       29.99F
MADISON        LGT RAIN  59  58  96 N3        30.11F FOG
MILWAUKEE      RAIN      61  59  93 E12       30.09S FOG
$$






USA.gov is the U.S. government's official web portal to all federal, state and local government web resources and services.